Weather History for KHGR - January, 2011

Change the Weather History Date:

Thursday, January 13, 2011

  Actual Average Record
Temperature  
Mean Temperature 25 °F 30 °F  
Max Temperature 30 °F 38 °F 68 °F (2005)
Min Temperature 19 °F 23 °F 12 °F (1997)
Degree Days  
Heating Degree Days 40 34  
Month to date heating degree days 479 447  
Since 1 July heating degree days 2438 2411  
Cooling Degree Days 0 0  
Month to date cooling degree days 0 0  
Year to date cooling degree days 0 0  
Moisture  
Dew Point 12 °F    
Average Humidity 58    
Maximum Humidity 68    
Minimum Humidity 47    
Precipitation  
Precipitation 0.00 in 0.09 in 0.19 in (2012)
Month to date precipitation 0.43 1.18  
Year to date precipitation 0.43 1.18  
Sea Level Pressure  
Sea Level Pressure 30.32 in    
Wind  
Wind Speed 14 mph (NW)    
Max Wind Speed 24 mph    
Max Gust Speed 28 mph    
Visibility 10 miles    
Events      
T = Trace of Precipitation, MM = Missing Value Source: NWS Daily Summary

Daily Weather History Graph

Daily Weather History Graph

Search for Another Location

Airport or City:

Trip Planner

Search our weather history database for the weather conditions in past years. The results will help you decide how hot, cold, wet, or windy it might be!

Date:

Astronomy

Jan. 13, 2011 Rise Set
Actual Time 7:30 AM EST 5:08 PM EST
Civil Twilight 7:01 AM EST 5:38 PM EST
Nautical Twilight 6:27 AM EST 6:11 PM EST
Astronomical Twilight 5:55 AM EST 6:44 PM EST
Moon 11:49 AM EST (1/13) 1:27 AM EST (1/13)
Length of Visible Light 10h 37m
Length of Day
9h 37m
First Quarter, 62% of the Moon is Illuminated
Jan 13
First Quarter
Jan 19
Full
Jan 26
Last Quarter
Feb 2
New
Feb 11
First Quarter

Hourly Weather History & Observations

Time (EST) Temp. Windchill Dew Point Humidity Pressure Visibility Wind Dir Wind Speed Gust Speed Precip Events Conditions
12:53 AM 25.0 °F 12.6 °F 14.0 °F 63% 30.15 in 10.0 mi NW 15.0 mph 20.7 mph N/A   Overcast
1:53 AM 24.1 °F 11.0 °F 12.9 °F 62% 30.18 in 10.0 mi NW 16.1 mph 23.0 mph N/A   Overcast
2:53 AM 23.0 °F 8.7 °F 12.0 °F 63% 30.20 in 10.0 mi NW 18.4 mph - N/A   Clear
3:53 AM 23.0 °F 9.6 °F 10.0 °F 58% 30.22 in 10.0 mi NW 16.1 mph - N/A   Clear
4:53 AM 21.9 °F 11.0 °F 10.0 °F 60% 30.25 in 10.0 mi NW 10.4 mph - N/A   Clear
5:53 AM 19.9 °F 11.1 °F 10.0 °F 65% 30.27 in 10.0 mi NW 6.9 mph - N/A   Mostly Cloudy
6:53 AM 21.0 °F 9.9 °F 12.0 °F 68% 30.28 in 10.0 mi NW 10.4 mph - N/A   Overcast
7:53 AM 21.9 °F 8.7 °F 12.9 °F 68% 30.30 in 10.0 mi WNW 15.0 mph - N/A   Partly Cloudy
8:53 AM 23.0 °F 9.6 °F 12.9 °F 65% 30.33 in 10.0 mi WNW 16.1 mph - N/A   Clear
9:53 AM 25.0 °F 14.2 °F 14.0 °F 63% 30.35 in 10.0 mi NW 11.5 mph - N/A   Partly Cloudy
10:53 AM 28.0 °F 17.0 °F 15.1 °F 58% 30.36 in 10.0 mi WNW 13.8 mph - N/A   Overcast
11:53 AM 28.0 °F 18.1 °F 14.0 °F 56% 30.35 in 10.0 mi WNW 11.5 mph - N/A   Scattered Clouds
12:53 PM 28.9 °F 16.5 °F 14.0 °F 54% 30.33 in 10.0 mi WNW 18.4 mph - N/A   Clear
1:53 PM 28.9 °F 19.2 °F 12.9 °F 51% 30.33 in 10.0 mi WNW 11.5 mph - N/A   Clear
2:53 PM 30.0 °F 17.9 °F 12.9 °F 49% 30.33 in 10.0 mi WNW 18.4 mph 24.2 mph N/A   Clear
3:53 PM 28.9 °F 16.9 °F 12.9 °F 51% 30.35 in 10.0 mi WNW 17.3 mph - N/A   Clear
4:53 PM 26.1 °F 13.6 °F 12.0 °F 55% 30.38 in 10.0 mi NW 16.1 mph 21.9 mph N/A   Clear
5:53 PM 25.0 °F 12.2 °F 10.9 °F 55% 30.38 in 10.0 mi WNW 16.1 mph 26.5 mph N/A   Clear
6:53 PM 24.1 °F 11.0 °F 10.9 °F 57% 30.40 in 10.0 mi WNW 16.1 mph - N/A   Clear
7:53 PM 21.9 °F 11.0 °F 10.0 °F 60% 30.41 in 10.0 mi WNW 10.4 mph - N/A   Clear
9:53 PM 23.0 °F 10.6 °F 10.9 °F 60% 30.40 in 10.0 mi WNW 13.8 mph - N/A   Overcast
10:08 PM 21.2 °F 6.8 °F 10.4 °F 63% 30.33 in 10.0 mi WNW 17.3 mph - N/A   Mostly Cloudy
10:53 PM 21.0 °F 14.6 °F 10.0 °F 63% 30.42 in 10.0 mi Variable 4.6 mph - N/A   Clear
11:53 PM 21.9 °F 14.5 °F 10.0 °F 60% 30.41 in 10.0 mi NW 5.8 mph - N/A   Clear